Date String (YYYY-MM-DD hh:mm:ss) UTC,Instrument flags,Ambient pressure (hPa),Sample flow (lpm),Bypass flow (lpm),Sample temperature (°C),Ambient temperature (°C),ASC tube jacket temperature (°C),LED temperature (°C),Box temperature (°C),Sample RH (%),Span deviation,Mass concentration (μg/m³),Mass concentration (μg/m³),Mass concentration (μg/m³)
DateTimeUTC,F1_M11,P_M11,Q1_M11,Q2_M11,T1_M11,T2_M11,T3_M11,T4_M11,T5_M11,U1_M11,ZSPAN_M11,X0_M11,X2_M11,X1_M11
2022-11-14 16:00:00,,0826.8,5.00,0.00,22.8,21.6,00.0,31.7,24.7,09.9,0000.7,0012.66,0005.51,0004.65
2022-11-14 16:01:00,,0826.8,5.00,0.00,22.8,21.6,00.0,31.7,24.7,10.0,0000.2,0011.91,0005.50,0004.65
2022-11-14 16:02:00,,0826.7,4.99,0.00,22.8,21.6,00.0,31.7,24.7,09.9,0000.0,0012.03,0005.50,0004.65
2022-11-14 16:03:00,,0826.8,5.00,0.00,22.8,21.5,00.0,31.7,24.7,09.8,0000.0,0012.76,0005.54,0004.69
2022-11-14 16:04:00,,0826.9,5.00,0.00,22.8,21.5,00.0,31.7,24.7,10.0,0000.0,0013.07,0005.58,0004.71
2022-11-14 16:05:00,,0827.2,5.00,0.00,22.8,21.5,00.0,31.7,24.6,10.1,0000.0,0013.41,0005.60,0004.73
2022-11-14 16:06:00,,0827.1,5.01,0.00,22.8,21.5,00.0,31.7,24.6,10.2,0000.0,0013.59,0005.63,0004.73
2022-11-14 16:07:00,,0827.0,5.00,0.00,22.8,21.4,00.0,31.7,24.6,10.0,0000.0,0014.07,0005.65,0004.74
2022-11-14 16:08:00,,0826.9,5.00,0.00,22.8,21.4,00.0,31.7,24.6,10.0,0000.0,0014.41,0005.65,0004.74
2022-11-14 16:09:00,,0826.9,5.00,0.00,22.8,21.4,00.0,31.7,24.6,10.2,0000.0,0014.81,0005.62,0004.73
2022-11-14 16:10:00,,0826.9,5.00,0.00,22.7,21.3,00.0,31.7,24.6,10.1,0000.0,0014.85,0005.67,0004.73
2022-11-14 16:11:00,,0826.9,5.00,0.00,22.7,21.3,00.0,31.6,24.5,10.2,0000.0,0014.87,0005.67,0004.72
2022-11-14 16:12:00,,0827.0,5.00,0.00,22.7,21.3,00.0,31.6,24.5,10.3,0000.0,0014.47,0005.72,0004.73
2022-11-14 16:13:00,,0827.1,4.99,0.00,22.7,21.3,00.0,31.6,24.5,10.3,0000.0,0014.67,0005.75,0004.76
2022-11-14 16:14:00,,0827.0,5.00,0.00,22.7,21.2,00.0,31.6,24.5,10.2,0002.6,0015.24,0005.76,0004.76
2022-11-14 16:15:00,,0827.1,5.00,0.00,22.6,21.2,00.0,31.5,24.4,10.2,0002.7,0015.69,0005.77,0004.75
2022-11-14 16:16:00,,0826.9,5.01,0.00,22.6,21.2,00.0,31.6,24.4,10.2,0000.0,0016.70,0005.76,0004.75
2022-11-14 16:17:00,,0827.2,5.01,0.00,22.6,21.2,00.0,31.5,24.4,10.3,0000.0,0016.60,0005.80,0004.77
2022-11-14 16:18:00,,0827.1,4.98,0.00,22.6,21.2,00.0,31.5,24.4,10.3,0000.0,0015.89,0005.78,0004.78
2022-11-14 16:19:00,,0827.4,4.99,0.00,22.6,21.2,00.0,31.5,24.4,10.4,0000.0,0015.73,0005.83,0004.77
2022-11-14 16:20:00,,0827.1,5.00,0.00,22.6,21.2,00.0,31.5,24.4,10.4,0000.0,0015.07,0005.90,0004.78
2022-11-14 16:21:00,,0827.1,5.00,0.00,22.6,21.2,00.0,31.5,24.4,10.4,0000.0,0015.86,0005.87,0004.78
2022-11-14 16:22:00,,0827.1,5.00,0.00,22.6,21.2,00.0,31.5,24.4,10.3,0000.0,0017.31,0005.91,0004.77
2022-11-14 16:23:00,,0826.9,5.02,0.00,22.6,21.2,00.0,31.5,24.4,10.3,0000.0,0017.53,0005.94,0004.77
2022-11-14 16:24:00,,0827.1,4.98,0.00,22.6,21.1,00.0,31.5,24.4,10.3,0000.0,0018.46,0005.96,0004.78
2022-11-14 16:25:00,,0826.9,4.99,0.00,22.5,21.0,00.0,31.5,24.4,10.2,0000.0,0018.34,0006.01,0004.81
2022-11-14 16:26:00,,0826.9,5.01,0.00,22.5,20.9,00.0,31.5,24.3,10.1,0000.0,0017.83,0006.06,0004.84
2022-11-14 16:27:00,,0827.0,5.00,0.00,22.5,20.9,00.0,31.5,24.3,10.1,0000.0,0016.40,0006.13,0004.87
2022-11-14 16:28:00,,0826.9,5.00,0.00,22.4,20.9,00.0,31.4,24.3,10.1,0000.0,0015.98,0006.15,0004.90
2022-11-14 16:29:00,,0826.9,5.01,0.00,22.4,20.9,00.0,31.4,24.2,10.2,0000.0,0016.25,0006.18,0004.94
2022-11-14 16:30:00,,0826.9,5.01,0.00,22.4,20.9,00.0,31.4,24.2,10.2,0000.0,0016.38,0006.18,0004.97
2022-11-14 16:31:00,,0826.9,4.98,0.00,22.4,20.9,00.0,31.4,24.2,10.2,0000.7,0016.42,0006.18,0004.98
2022-11-14 16:32:00,,0826.9,5.02,0.00,22.4,20.8,00.0,31.4,24.2,10.1,0000.0,0015.88,0006.20,0005.01
2022-11-14 16:33:00,,0826.9,4.99,0.00,22.4,20.8,00.0,31.4,24.2,10.1,0000.2,0015.87,0006.18,0005.04
2022-11-14 16:34:00,,0826.9,4.99,0.00,22.3,20.8,00.0,31.3,24.1,10.1,0001.5,0016.80,0006.17,0005.07
2022-11-14 16:35:00,,0826.9,5.02,0.00,22.3,20.8,00.0,31.3,24.1,10.2,0000.0,0016.50,0006.20,0005.09
2022-11-14 16:36:00,,0826.9,4.98,0.00,22.3,21.1,00.0,31.3,24.2,10.1,0000.0,0015.99,0006.20,0005.10
2022-11-14 16:37:00,,0826.9,4.99,0.00,22.4,22.1,00.0,31.2,24.4,10.1,0000.0,0015.39,0006.15,0005.10
2022-11-14 16:38:00,,0827.0,5.02,0.00,22.5,22.6,00.0,31.3,24.5,10.1,0000.0,0015.83,0006.08,0005.09
2022-11-14 16:39:00,,0826.9,4.98,0.00,22.6,22.3,00.0,31.3,24.6,10.0,0000.0,0016.72,0006.09,0005.07
2022-11-14 16:40:00,,0827.0,5.00,0.00,22.6,22.0,00.0,31.4,24.5,10.0,0000.0,0017.37,0006.10,0005.06
2022-11-14 16:41:00,,0827.3,4.99,0.00,22.6,21.7,00.0,31.4,24.5,10.1,0000.0,0017.72,0006.13,0005.07
2022-11-14 16:42:00,,0827.1,5.01,0.00,22.5,21.6,00.0,31.4,24.4,10.1,0000.0,0017.94,0006.14,0005.08
2022-11-14 16:43:00,,0827.0,5.01,0.00,22.5,21.4,00.0,31.4,24.4,10.1,0000.0,0018.24,0006.16,0005.08
2022-11-14 16:44:00,,0827.1,4.99,0.00,22.5,21.4,00.0,31.4,24.4,10.0,0000.0,0017.63,0006.20,0005.09
2022-11-14 16:45:00,,0827.0,4.99,0.00,22.5,21.3,00.0,31.4,24.4,10.0,0000.0,0017.53,0006.21,0005.09
2022-11-14 16:46:00,,0827.1,5.01,0.00,22.5,21.3,00.0,31.4,24.4,10.1,0000.0,0017.66,0006.20,0005.08
2022-11-14 16:47:00,,0827.0,5.01,0.00,22.5,21.3,00.0,31.4,24.4,10.1,0000.0,0018.43,0006.18,0005.08
2022-11-14 16:48:00,,0826.9,5.00,0.00,22.5,21.2,00.0,31.4,24.3,10.0,0000.6,0018.60,0006.21,0005.08
2022-11-14 16:49:00,,0827.1,5.00,0.00,22.5,21.1,00.0,31.4,24.3,10.0,0000.1,0018.45,0006.23,0005.07
2022-11-14 16:50:00,,0827.0,5.00,0.00,22.5,21.1,00.0,31.4,24.3,10.0,0000.5,0018.09,0006.24,0005.09
2022-11-14 16:51:00,,0827.0,5.00,0.00,22.5,21.1,00.0,31.4,24.3,10.1,0000.9,0018.13,0006.28,0005.08
2022-11-14 16:52:00,,0827.0,4.99,0.00,22.4,21.1,00.0,31.4,24.3,09.9,0000.1,0017.84,0006.24,0005.08
2022-11-14 16:53:00,,0827.0,5.00,0.00,22.4,21.0,00.0,31.4,24.3,10.0,0000.0,0017.57,0006.24,0005.10
2022-11-14 16:54:00,,0827.0,5.01,0.00,22.4,21.0,00.0,31.4,24.3,10.1,0000.6,0017.13,0006.25,0005.11
2022-11-14 16:55:00,,0827.0,5.00,0.00,22.4,21.0,00.0,31.4,24.2,10.2,0000.1,0016.30,0006.27,0005.12
2022-11-14 16:56:00,,0827.0,5.00,0.00,22.4,21.0,00.0,31.4,24.2,10.3,-000.1,0015.42,0006.24,0005.12
2022-11-14 16:57:00,,0827.0,5.01,0.00,22.4,20.9,00.0,31.4,24.2,10.2,-000.6,0014.39,0006.21,0005.13
2022-11-14 16:58:00,,0827.0,5.02,0.00,22.4,20.9,00.0,31.3,24.2,10.2,-000.7,0014.31,0006.20,0005.13
2022-11-14 16:59:00,,0827.1,4.99,0.00,22.4,20.9,00.0,31.3,24.2,10.2,-000.9,0014.68,0006.22,0005.15
